Theta_e
343 344 345 345 345 345 344 343 341 338 335 334 333 335 338 340 340 342 344 351 353 353 353 351 348 342 342 339 337 333 330 329 325 319 311 312 312 313 313 314 315 315 316
343 344 344 344 345 345 345 344 343 342 341 342 344 344 342 342 343 346 350 355 353 354 354 352 343 343 341 337 336 329 320 311 311 310 311 312 313 310 305 304 307 310 312
344 344 345 345 345 345 345 345 344 345 346 348 347 346 345 344 346 351 356 355 355 354 349 345 342 343 338 338 328 318 309 307 308 310 312 312 312 312 310 305 305 309 312
345 345 345 345 346 344 344 344 345 346 347 348 348 346 343 348 352 357 357 357 358 353 344 343 344 339 337 327 317 309 307 309 310 311 312 311 311 312 304 307 311 312 314
345 345 345 345 346 346 344 344 344 346 347 347 346 344 349 355 357 359 362 359 356 347 344 342 338 336 326 320 311 309 311 311 310 314 313 312 311 311 303 306 313 313 311
346 346 345 345 346 346 344 344 345 345 346 347 346 348 356 359 361 361 360 359 349 345 343 340 336 327 322 313 309 310 311 311 311 316 315 313 313 312 302 311 314 314 310
346 346 346 345 344 343 343 344 343 344 347 348 349 356 358 359 358 357 355 350 346 343 340 336 333 323 316 309 309 312 312 312 311 314 316 313 313 309 303 311 315 314 312
347 346 346 344 341 339 340 339 342 345 347 350 355 358 358 358 356 355 353 348 345 340 337 334 330 321 311 308 311 313 313 312 311 314 315 312 311 302 303 310 315 315 313
347 345 341 339 336 336 338 341 344 346 349 352 358 358 359 358 356 353 350 348 344 339 336 333 324 316 309 311 312 313 312 310 312 314 313 310 302 301 303 311 316 318 316
343 340 340 341 341 341 341 344 346 347 351 355 360 359 359 356 354 351 349 347 344 339 334 330 320 311 309 312 313 313 311 308 310 312 310 302 301 301 304 308 309 314 315
340 343 344 345 345 345 345 346 347 348 351 357 360 359 357 355 352 350 348 346 341 334 333 324 317 309 311 312 313 313 310 308 309 309 307 301 302 301 302 306 305 309 314
344 345 345 345 346 346 346 346 347 348 352 359 361 358 356 353 351 349 346 342 337 332 328 322 314 311 311 313 313 312 310 309 306 307 303 301 302 303 301 302 304 304 312
347 347 346 346 346 346 347 347 348 350 353 360 361 357 355 353 349 349 344 341 335 332 323 319 312 310 311 313 313 311 311 309 305 305 303 301 302 303 302 301 303 304 313
348 349 350 351 351 351 352 352 352 352 355 362 362 357 354 352 349 347 341 339 332 327 320 316 311 311 311 312 312 311 311 309 305 304 304 301 303 303 303 301 301 306 311
354 354 354 352 351 353 356 358 358 358 358 360 362 357 354 351 349 346 340 334 326 323 320 315 311 311 311 312 312 310 310 309 306 304 304 302 303 303 304 302 300 304 305
343 342 340 340 342 348 357 359 361 361 362 364 362 359 356 352 349 345 340 329 325 324 319 316 312 309 310 311 311 310 310 310 308 305 303 303 303 304 304 303 300 300 303
348 348 349 348 348 353 359 362 363 364 364 364 362 359 355 350 349 345 337 327 325 324 318 316 314 310 309 310 311 310 310 310 309 306 303 302 303 304 304 304 302 301 302
355 356 356 357 357 359 362 364 364 365 364 361 360 355 353 350 349 344 336 327 324 323 319 317 315 310 309 309 310 310 311 311 310 307 303 302 303 303 303 304 303 302 301
360 360 359 359 360 360 361 365 365 365 364 359 357 353 351 351 349 343 338 331 327 325 321 317 316 312 309 309 309 310 311 310 309 307 303 302 303 303 303 304 303 303 302
359 362 362 361 358 356 359 360 361 363 361 358 358 355 350 350 347 344 340 336 329 325 323 318 317 314 310 309 308 310 311 309 309 308 305 303 303 303 303 303 303 303 303
354 357 360 360 361 359 354 353 356 358 360 357 357 356 350 349 347 344 341 339 334 326 324 319 318 316 312 310 309 309 311 310 309 308 307 305 304 304 304 303 303 303 303
352 353 353 358 358 359 360 355 351 353 361 358 357 355 350 349 347 345 343 340 336 327 325 320 319 317 314 310 309 308 310 310 311 310 309 307 305 304 304 304 303 303 303
352 352 355 358 357 356 356 358 357 355 355 355 357 355 351 348 346 346 344 341 337 328 325 321 319 318 317 313 310 309 308 309 310 311 310 309 307 305 305 304 304 303 303
338 347 350 350 351 353 353 356 355 355 355 356 356 355 351 350 346 346 343 342 338 329 325 321 320 319 318 316 312 310 310 309 310 310 311 310 308 306 305 305 305 304 303
327 330 339 348 351 352 353 353 353 352 352 353 352 354 350 350 349 347 343 342 340 331 325 321 320 319 320 318 315 311 310 311 309 310 311 310 309 307 306 306 305 305 304
327 326 329 337 345 349 351 351 351 349 348 349 349 350 349 348 348 346 342 342 340 332 326 321 321 320 320 320 318 315 310 310 310 310 310 311 309 308 308 307 307 305 305
Wind_Speed
32 31 32 29 26 23 20 19 18 19 20 21 23 25 26 26 26 27 22 22 23 21 20 18 12 7 10 8 8 8 10 10 9 7 10 13 15 16 17 18 18 19 17
31 32 26 20 27 26 22 18 16 16 16 17 20 22 23 22 21 21 18 18 17 16 16 15 5 5 7 8 8 10 10 8 5 4 8 11 15 18 21 22 21 21 21
33 31 28 28 20 21 21 18 17 14 14 15 16 18 19 18 15 15 15 14 12 12 14 4 2 3 7 6 9 10 9 8 8 8 10 14 17 22 25 26 22 22 21
31 32 30 28 25 21 19 18 16 14 16 16 16 16 14 11 12 12 12 10 9 9 5 3 4 4 5 7 8 8 9 9 9 10 14 19 22 25 31 33 30 23 20
30 29 28 23 24 21 20 18 16 15 14 14 13 12 9 8 10 10 9 7 6 3 2 5 3 1 4 6 7 8 8 10 10 12 17 21 26 31 35 34 29 23 22
27 25 22 23 23 22 20 18 17 14 13 12 10 8 6 7 9 9 7 2 1 1 4 5 3 2 4 6 6 8 8 10 11 13 18 22 25 30 33 36 27 28 24
24 23 22 22 21 21 19 19 15 13 11 10 7 7 8 8 8 7 3 2 1 5 5 4 3 3 5 6 7 7 8 9 11 13 16 22 25 30 29 36 28 23 23
22 22 21 22 21 20 19 17 14 12 11 9 8 8 8 7 7 5 3 3 4 8 5 4 2 3 5 7 7 8 8 9 10 10 14 19 22 24 24 29 28 22 24
23 21 22 22 21 20 18 15 13 12 11 11 10 7 8 7 7 5 6 6 7 9 7 4 3 3 5 8 8 9 9 8 8 10 13 18 21 21 22 27 33 34 28
23 21 21 19 18 17 15 14 12 12 12 12 10 9 8 7 7 8 8 6 9 8 8 6 4 3 7 10 9 8 8 8 8 10 13 16 22 23 21 26 29 32 33
18 19 18 18 16 15 15 14 14 15 14 13 10 11 9 9 9 11 9 8 6 8 7 7 5 7 9 9 9 7 6 9 8 9 12 17 23 26 22 25 27 29 30
18 16 15 16 16 16 16 17 17 18 18 16 16 15 14 12 12 13 12 9 7 6 8 7 7 10 10 9 8 5 6 8 9 10 12 16 22 26 26 20 24 25 25
17 16 16 17 17 17 18 19 20 20 21 20 20 17 17 18 17 17 17 12 9 9 9 8 8 10 10 10 8 7 7 8 9 11 13 16 20 23 24 19 21 22 23
16 14 14 15 15 16 18 19 20 21 23 23 22 20 21 22 22 22 23 18 15 14 13 11 10 12 11 10 9 7 6 7 9 13 13 15 17 19 25 24 19 20 22
14 14 13 14 15 16 17 18 19 19 20 20 22 23 25 28 27 23 21 20 17 15 15 14 13 14 13 12 10 8 8 8 10 13 13 14 14 16 22 24 20 21 24
10 10 10 11 12 14 17 17 17 17 18 17 15 15 20 20 25 25 21 18 17 14 17 15 14 15 13 13 11 11 9 8 9 11 12 12 12 15 19 21 21 21 22
10 9 7 7 8 10 13 16 17 21 19 19 18 16 14 21 26 26 24 21 19 17 17 16 14 16 15 14 13 11 10 9 8 8 10 11 11 13 14 18 21 22 23
7 5 3 4 6 10 12 16 17 21 22 21 22 20 17 20 24 26 28 26 25 21 18 17 16 16 16 15 15 14 12 10 9 8 9 11 11 12 14 16 19 20 22
5 2 1 3 7 9 13 18 21 22 22 22 27 25 24 26 24 28 31 28 25 23 22 20 17 16 16 16 16 15 12 12 11 10 10 11 12 11 15 14 16 18 21
3 3 4 6 7 7 10 15 20 24 25 25 30 28 32 34 38 38 37 32 26 23 21 23 20 18 18 16 18 18 17 17 16 13 11 12 14 13 15 15 13 14 18
7 11 11 10 11 13 12 17 21 24 27 24 31 31 34 39 43 42 39 35 29 25 22 23 22 20 20 18 19 20 19 18 16 15 13 12 13 15 14 14 13 10 12
5 7 8 11 13 15 20 19 19 23 29 25 33 33 33 40 42 42 40 34 30 26 23 23 23 21 21 21 20 21 22 21 19 17 14 13 13 13 13 13 13 12 9
7 9 11 11 14 15 20 24 24 25 25 28 32 36 39 42 42 42 41 35 31 29 26 25 24 22 20 20 19 19 21 22 21 19 18 16 14 13 12 10 10 11 10
9 8 9 15 18 18 18 21 24 24 25 31 32 36 37 40 42 42 39 37 32 30 29 28 27 25 22 21 21 21 20 19 20 20 20 18 17 15 13 11 10 9 10
14 11 9 8 10 18 18 22 23 25 24 29 34 34 34 34 41 39 39 37 34 34 32 31 29 28 24 22 22 22 22 23 22 23 22 21 19 19 16 14 12 12 11
15 14 12 9 9 10 17 20 22 22 24 23 27 29 32 34 38 34 35 37 36 34 33 33 32 30 27 24 22 22 23 26 26 25 25 24 23 22 20 18 16 14 12
Wind_Direction
233 235 237 240 242 245 250 254 259 262 264 271 276 279 284 288 295 300 304 303 304 308 311 305 311 322 346 10 349 338 329 320 308 316 1 15 11 2 355 351 346 343 328
231 236 231 235 244 245 247 253 261 265 268 271 279 283 287 291 297 299 303 303 309 312 309 313 302 334 10 347 338 339 333 337 340 31 15 6 14 14 9 357 348 345 333
226 232 233 230 232 238 241 247 253 261 269 276 286 289 289 291 295 298 303 308 311 312 330 359 80 25 355 337 346 347 6 30 43 31 21 12 11 6 360 5 357 348 343
228 229 233 235 234 238 238 240 248 256 267 277 282 286 288 293 291 298 301 300 311 326 2 90 83 23 339 354 359 15 36 46 40 26 24 18 13 10 7 4 2 356 356
230 229 229 227 230 231 235 238 245 255 267 273 275 277 285 275 283 292 297 309 319 328 130 102 55 21 4 15 31 49 51 42 33 31 27 18 14 10 6 2 360 1 359
228 222 219 222 225 226 229 235 243 252 260 264 268 272 247 264 291 297 307 270 314 264 163 131 122 67 30 37 54 64 49 41 35 32 23 18 13 7 7 7 6 8 8
219 214 214 214 216 219 224 230 233 242 253 256 258 242 248 280 281 286 266 276 181 151 135 121 104 73 47 56 69 65 59 43 30 27 20 17 10 4 5 11 15 15 21
209 208 211 211 210 211 213 216 223 236 241 241 233 226 262 261 267 256 207 175 169 154 146 140 84 56 58 68 77 75 59 38 28 25 20 16 8 4 13 15 22 37 34
200 204 205 200 200 200 203 207 217 226 230 233 226 233 249 240 243 223 198 183 180 172 169 150 122 63 86 96 82 72 55 38 47 41 30 18 8 15 18 22 28 34 34
194 199 189 192 198 202 203 207 216 224 227 226 211 225 223 227 220 193 185 190 192 188 173 155 147 117 111 99 85 72 55 57 59 53 43 34 31 30 30 29 29 34 32
189 191 201 204 208 208 214 221 227 228 226 219 204 212 217 210 202 187 179 180 192 182 174 156 155 133 118 105 93 72 54 56 69 72 64 52 42 39 39 35 33 36 36
198 204 214 220 224 229 233 235 234 231 226 216 201 208 203 202 186 185 170 174 177 191 167 156 150 134 123 114 106 90 69 56 73 78 78 61 45 39 37 39 39 40 44
218 227 228 233 237 239 241 242 238 230 222 216 202 210 206 198 192 177 172 173 175 177 168 158 153 139 130 130 120 101 82 61 70 83 77 63 51 42 36 44 45 46 56
210 214 220 226 232 236 239 239 238 229 220 217 207 211 206 200 194 186 181 182 182 180 180 167 162 149 137 139 132 129 120 82 80 86 85 73 62 48 38 42 54 52 59
201 207 218 226 233 235 234 236 237 236 236 232 219 218 209 201 198 196 192 180 183 182 184 173 171 166 158 157 148 143 133 100 85 84 87 85 75 53 41 39 55 58 59
186 204 224 237 241 237 229 228 227 226 228 227 236 246 226 219 198 194 187 183 183 184 187 177 175 175 172 166 163 151 141 115 87 80 91 98 83 58 47 44 53 62 69
192 201 221 231 227 226 228 223 222 211 209 219 218 224 242 207 200 196 182 182 185 187 192 183 180 173 175 174 173 167 154 137 112 91 93 103 89 69 59 55 57 68 74
198 218 236 254 249 236 229 228 223 221 210 209 209 207 213 201 201 195 185 186 189 190 193 190 180 178 183 181 180 177 172 165 149 123 110 115 108 90 84 78 70 74 78
176 193 288 269 255 253 245 239 231 218 220 219 209 207 202 205 204 199 196 200 194 190 187 191 187 182 182 186 185 182 179 174 165 149 129 124 120 107 99 93 85 81 85
279 291 285 284 280 271 260 251 240 231 223 225 217 217 200 199 198 199 201 203 203 199 193 189 189 187 187 189 190 185 184 179 172 163 147 138 131 119 106 102 99 91 89
276 282 268 264 276 263 267 259 252 245 233 233 226 225 214 204 204 204 206 203 203 203 199 194 193 192 193 194 193 192 189 184 176 169 160 150 144 134 121 111 111 113 102
328 293 278 268 277 268 263 253 261 252 236 242 231 222 214 216 212 209 213 209 204 204 203 200 199 197 198 199 198 198 196 194 186 183 178 166 157 151 138 129 122 124 136
343 332 311 293 281 280 262 258 253 246 252 247 240 223 219 219 216 213 217 213 208 206 203 202 203 202 201 202 205 210 206 202 199 195 191 186 177 169 159 147 138 131 139
349 339 321 302 285 282 278 271 261 261 262 249 241 229 228 224 219 217 217 216 211 210 207 203 202 202 205 205 205 208 211 210 206 202 203 201 192 183 180 168 161 157 147
346 338 323 313 319 282 279 282 272 258 263 257 243 233 226 229 224 224 220 217 215 213 211 207 204 204 202 207 209 209 208 207 209 207 206 205 203 194 189 186 177 179 180
346 341 328 317 278 280 273 270 265 265 263 259 252 240 231 229 227 228 224 219 217 216 217 213 207 205 208 208 210 212 214 212 210 208 205 203 201 199 199 193 190 191 184